Location: Newark
(43.0000°N, 1.6781°W)
Time: 06:51:20
(UTC+00:00)

Courier 1B Rocket - Pass Details

Date: 24 April 2021
Orbit: 920 x 1202 km, 28.2° (Epoch: 09 May)

Event Time Altitude Azimuth Distance (km) Brightness Sun altitude
Rises 20:25:57 0° 247° (WSW) 3,649 8.5 -14.9°
Reaches altitude 10° 20:29:09 10° 232° (SW) 2,744 7.6 -15.3°
Maximum altitude 20:34:05 22° 184° (S) 2,068 6.4 -16.1°
Enters shadow 20:36:27 19° 158° (SSE) 2,284 6.4 -16.4°
